Regional Weather Roundup
Issued by NWS

Home | Current Version | Previous Version | Graphics & Text | Print | Product List | Glossary On
Versions: 1 2 3 4 5 6 7 8 9 10 11 12 13 14 15 16 17 18 19 20 21 22 23 24 25 26 27 28 29 30 31 32 33 34 35 36 37 38 39 40 41 42 43 44 45 46 47 48 49 50
000
ASUS43 KFSD 281402
RWRSD

WEATHER ROUNDUP FOR SOUTH DAKOTA
NATIONAL WEATHER SERVICE SIOUX FALLS SD
900 AM CDT WED JUN 28 2017

NOTE: "FAIR" INDICATES FEW OR NO CLOUDS BELOW 12,000 FEET WITH NO
SIGNIFICANT WEATHER AND/OR OBSTRUCTIONS TO VISIBILITY.


SDZ001>005-009-010-012>017-281500-
NORTHWEST AND NORTH CENTRAL SOUTH DAKOTA

CITY           SKY/WX    TMP DP  RH WIND       PRES   REMARKS
BUFFALO          N/A     67  52  58 NW12      29.73R
FAITH            N/A     68  55  63 N20G28    29.72S
MOBRIDGE       CLOUDY    71  56  58 NW20G25   29.61R
$$

SDZ012>016-024>037-041>051-057-063-072>074-281500-
SOUTHWEST AND SOUTH CENTRAL SOUTH DAKOTA

CITY           SKY/WX    TMP DP  RH WIND       PRES   REMARKS
RAPID CTY ARPT SUNNY     68  54  60 NW16G26   29.80R
PIERRE         CLOUDY    68  60  75 NW12      29.65R
CUSTER         SUNNY     62  45  53 N7        29.91R
PHILIP         SUNNY     69  58  67 NW18      29.72R
PINE RIDGE     SUNNY     64  56  75 W7        29.83S
SPEARFISH      PTSUNNY   63  54  72 W7        29.86S
WINNER         FAIR      73  57  57 NW14G23   29.70R
$$

SDZ004>011-016>023-039-040-281500-
NORTHEAST SOUTH DAKOTA

CITY           SKY/WX    TMP DP  RH WIND       PRES   REMARKS
ABERDEEN       CLOUDY    69  60  73 W12       29.54R
WATERTOWN      CLOUDY    66  62  87 W16G25    29.54R
BROOKINGS      CLOUDY    67  61  81 SW7       29.60R
SISSETON         N/A     70  64  81 W9        29.45F
$$

SDZ017-020-022-023-036>040-048>070-281500-
SOUTHEAST SOUTH DAKOTA

CITY           SKY/WX    TMP DP  RH WIND       PRES   REMARKS
SIOUX FALLS    PTSUNNY   69  65  86 SW12      29.62R
HURON          LGT RAIN  66  63  90 NW12G21   29.57R
CHAMBERLAIN    MOSUNNY   70  61  73 W12       29.65F
MITCHELL       MOSUNNY   73  60  63 W13       29.60S
YANKTON        CLOUDY    72  62  71 S8        29.65R
$$

ABBREVIATIONS USED IN REMARKS
   TC - TEMPERATURE IN CELSIUS
  WCI - WIND CHILL INDEX
   HX - HEAT INDEX
  VSB - VISIBILITY





USA.gov is the U.S. government's official web portal to all federal, state and local government web resources and services.